Home > Weather > Kiruna > Past weeks

Flag for Sweden Weather for the Past 2 Weeks in Kiruna, Sweden

Now
12 °F

Snow flurries. Mostly cloudy.


Feels Like: 12 °F
Forecast: 20 / 27 °F
Wind: No wind

Location: Kiruna Airport

Current Time: Feb 8, 2016 at 3:18:44 AM

Latest Report: Feb 8, 2016 at 2:20 AM


Visibility: 4 mi

Pressure: 28.88 "Hg (26.95 "Hg at 532m altitude)

Humidity: 92%

Dew point: 10 °F

Location of KirunaLocation

Historic Weather in Kiruna — Graph

°F

Kiruna Temperature Yesterday

Maximum temperature yesterday: 12 °F (at 4:20 AM)
Minimum temperature yesterday: -2 °F (at 5:20 PM)
Average temperature yesterday: 7 °F

High & Low Weather Summary for the Past Weeks

 TemperatureHumidityPressure
High30 °F (Jan 31, 11:20 AM)100% (Jan 26, 8:20 AM)29.92 "Hg (Jan 26, 8:20 AM)
Low-8 °F (Jan 24, 2:50 AM)59% (Feb 1, 12:50 AM)28.29 "Hg (Jan 30, 11:50 AM)
Average10 °F88%29.08 "Hg
* Reported Jan 24 1:20 AM — Feb 8 1:50 AM, Kiruna, Weather by CustomWeather, © 2016

Note: Actual official high and low records may vary slightly from our data, if they occured in-between our weather recording intervals... More about our weather records

Advertising

Kiruna Weather History for the Previous 24 Hours

 ConditionsComfort  
Time TempWeatherWind HumidityBarometerVisibility
1:50 AM
Mon, Feb 8
12 °FLight snow. Overcast.No wind92%28.88 "Hg2 mi
1:20 AM10 °FLight snow. Mostly cloudy.1 mph92%28.91 "HgN/A
12:50 AM10 °FLight snow. Mostly cloudy.2 mph92%28.91 "Hg1 mi
12:20 AM10 °FLight snow. Mostly cloudy.No wind92%28.94 "Hg3 mi
11:50 PM
Sun, Feb 7
10 °FLight snow. Ice fog.No wind92%28.94 "Hg1 mi
11:20 PM10 °FLight snow. Ice fog.1 mph92%28.97 "Hg1 mi
10:50 PM9 °FLight snow. Passing clouds.No wind92%28.97 "Hg2 mi
10:20 PM9 °FSnow. Passing clouds.2 mph92%29.00 "Hg2 mi
9:50 PM9 °FLight snow. Low clouds.1 mph92%29.03 "Hg2 mi
9:20 PM9 °FLight snow. Low clouds.No wind92%29.03 "Hg2 mi
8:50 PM9 °FLight snow. Low clouds.1 mph85%29.03 "Hg2 mi
8:20 PM7 °FLight snow. Mostly cloudy.No wind92%29.03 "Hg2 mi
7:50 PM7 °FLight snow. Partly cloudy.1 mph85%29.06 "Hg1 mi
7:20 PM5 °FLight snow. Passing clouds.No wind92%29.06 "Hg1 mi
6:50 PM5 °FIce fog.No wind92%29.09 "Hg4 mi
6:20 PM3 °FPassing clouds.No wind92%29.09 "HgN/A
5:50 PM3 °FPassing clouds.1 mph92%29.09 "HgN/A
5:20 PM-2 °FPassing clouds.No wind84%29.12 "HgN/A
4:20 PM0 °FClear.2 mph84%29.12 "Hg10 mi
3:50 PM0 °FClear.2 mph84%29.12 "Hg10 mi
3:20 PM0 °FClear.1 mph84%29.12 "Hg10 mi
2:50 PM1 °FSunny.No wind85%29.15 "Hg10 mi
2:20 PM1 °FSunny.No wind92%29.15 "Hg10 mi
1:50 PM5 °FSunny.No wind85%29.15 "Hg10 mi
1:20 PM5 °FSunny.No wind92%29.15 "Hg10 mi
12:50 PM7 °FSunny.No wind85%29.15 "Hg10 mi
12:20 PM7 °FSunny.2 mph85%29.18 "Hg10 mi
11:50 AM7 °FSunny.No wind92%29.18 "Hg10 mi
11:20 AM9 °FLight snow. Cloudy.3 mph92%29.18 "Hg1 mi
10:50 AM12 °FLight snow. Cloudy.6 mph92%29.18 "Hg1 mi
10:20 AM9 °FLight snow. Cloudy.5 mph92%29.18 "Hg1 mi
9:50 AM9 °FLight snow. Cloudy.5 mph92%29.18 "Hg0 mi
9:20 AM5 °FLight snow. Cloudy.3 mph85%29.18 "Hg1 mi
8:50 AM7 °FLight snow. Cloudy.3 mph92%29.18 "Hg2 mi
8:20 AM5 °FFrigid.3 mph85%29.15 "HgN/A
7:50 AM9 °FFrigid.5 mph85%29.15 "HgN/A
7:20 AM10 °FCold.6 mph92%29.15 "HgN/A
6:50 AM9 °FFrigid.6 mph92%29.15 "HgN/A
6:20 AM10 °FPassing clouds.3 mph92%29.15 "HgN/A
5:50 AM12 °FCold.5 mph92%29.15 "HgN/A
5:20 AM12 °FCold.3 mph92%29.15 "HgN/A
4:20 AM12 °FLight snow. Overcast.3 mph92%29.15 "Hg6 mi
3:50 AM10 °FSnow flurries. Overcast.No wind92%29.15 "HgN/A
3:20 AM10 °FLight snow. Passing clouds.2 mph92%29.15 "Hg3 mi
Weather by CustomWeather, © 2016

See weather overviewHow to use our weather pages